Regional Weather Roundup
Issued by NWS

Home | Current Version | Previous Version | Graphics & Text | Print | Product List | Glossary On
Versions: 1 2 3 4 5 6 7 8 9 10 11 12 13 14 15 16 17 18 19 20 21 22 23 24 25 26 27 28 29 30 31 32 33 34 35 36 37 38 39 40 41 42 43 44 45 46 47 48 49 50
000
ASUS43 KOAX 170802
RWRNE

WEATHER ROUNDUP FOR NEBRASKA
NATIONAL WEATHER SERVICE OMAHA NE
200 AM CST WED JAN 17 2018

NOTES: SATELLITE DATA IS BEING USED TO AUGMENT CLOUD COVER ABOVE
       12000 FEET.
       "FAIR" INDICATES FEW OR NO CLOUDS BELOW 12,000 FEET WITH NO
       SIGNIFICANT WEATHER AND/OR OBSTRUCTIONS TO VISIBILITY.


NEZ001>004-019>022-054>056-170900-
NEBRASKA PANHANDLE

CITY           SKY/WX    TMP DP  RH WIND       PRES   REMARKS
SCOTTSBLUFF    CLEAR      7   3  84 W3        30.23F
ALLIANCE       CLEAR      6   2  83 S3        30.22F
CHADRON        CLEAR     11   4  73 SW5       30.23S WCI   3
GORDON         FAIR      15   4  59 W7        30.23S WCI   6
KIMBALL        CLEAR     13   6  73 W7        30.21F WCI   3
SIDNEY         CLEAR      4  -1  80 W6        30.24F WCI  -7
$$

NEZ057>060-069>072-079>082-170900-
SOUTHWEST NEBRASKA

CITY           SKY/WX    TMP DP  RH WIND       PRES   REMARKS
NORTH PLATTE   CLEAR     10  -2  58 VRB5      30.37F WCI   2
IMPERIAL       CLEAR      8   0  69 S6        30.33F WCI  -2
LEXINGTON      CLEAR     11   1  65 SW8       30.43F WCI  -1
MCCOOK         CLEAR      5  -2  72 S6        30.41F WCI  -6
OGALLALA       CLEAR     10   2  70 W5        30.32S WCI   1
$$

NEZ005>010-023>029-035>040-094-170900-
NORTH CENTRAL NEBRASKA

CITY           SKY/WX    TMP DP  RH WIND       PRES   REMARKS
VALENTINE      CLEAR     13   4  67 SW9       30.27F WCI   1
AINSWORTH      CLEAR     12   2  65 SW16      30.30S WCI  -5
BROKEN BOW     CLEAR      7  -2  66 SW8       30.38F WCI  -6
O`NEILL        CLEAR      9   1  71 S12       30.37F WCI  -6
ORD            CLEAR      8   0  69 SW7       30.43F WCI  -3
THEDFORD       CLEAR     12   1  62 SW13      30.32F WCI  -3
$$

NEZ041-046>049-061>064-073>077-083>087-170900-
SOUTH CENTRAL NEBRASKA

CITY           SKY/WX    TMP DP  RH WIND       PRES   REMARKS
GRAND ISLAND   CLOUDY     6   0  76 S9        30.49F WCI  -8
AURORA         CLOUDY     5  -1  75 S9        30.51F WCI  -9
HASTINGS       CLOUDY     5  -2  72 S7        30.50F WCI  -7
HEBRON         CLOUDY     2  -1  83 S3        30.58S
HOLDREGE       CLOUDY     7   1  76 SW10      30.46F WCI  -8
KEARNEY        CLOUDY     5  -1  76 SW12      30.47F WCI -11
YORK           CLOUDY     3   0  85 S8        30.53F WCI -10
$$

NEZ011>018-030>034-042>045-170900-
NORTHEAST NEBRASKA

CITY           SKY/WX    TMP DP  RH WIND       PRES   REMARKS
NORFOLK        CLOUDY     5  -1  76 S9        30.48F WCI  -9
ALBION         CLOUDY     6   0  77 S5        30.47F WCI  -3
BLAIR          CLOUDY     4   0  84 S6        30.56F WCI  -7
COLUMBUS       CLOUDY     4  -1  80 S7        30.54F WCI  -8
FREMONT        CLOUDY     7   1  78 SW9       30.57F WCI  -7
TEKAMAH        CLOUDY    -2  -7  79 SE9       30.58F WCI -18
WAYNE          CLOUDY     5  -1  78 S7        30.50F WCI  -7
$$

NEZ050>053-065>068-078-088>093-170900-
SOUTHEAST NEBRASKA

CITY           SKY/WX    TMP DP  RH WIND       PRES   REMARKS
LINCOLN        CLOUDY     1  -4  79 S5        30.60F WCI  -9
OMAHA EPPLEY   CLOUDY     1  -3  83 SE9       30.61F WCI -14
BEATRICE       CLOUDY     0  -4  82 CALM      30.60S
FALLS CITY     CLEAR     -2  -7  79 S3        30.64F
NEBRASKA CITY  CLOUDY     1  -2  89 SW3       30.61S
PLATTSMOUTH    CLOUDY     4   0  86 S5        30.60S WCI  -6
$$

NEZ044-045-051>053-067-170900-
OMAHA AREA

CITY           SKY/WX    TMP DP  RH WIND       PRES   REMARKS
OMAHA EPPLEY   CLOUDY     1  -3  83 SE9       30.61F WCI -14
BLAIR          CLOUDY     4   0  84 S6        30.56F WCI  -7
FREMONT        CLOUDY     7   1  78 SW9       30.57F WCI  -7
MILLARD        CLOUDY     3  -1  83 CALM      30.61F
OFFUTT AFB     CLOUDY    -6 -11  79 S3        30.60F
PLATTSMOUTH    CLOUDY     4   0  86 S5        30.60S WCI  -6
WAHOO          FAIR      -1  -5  82 CALM      30.58F
$$




USA.gov is the U.S. government's official web portal to all federal, state and local government web resources and services.